Wind_Gust
20 21 21 23 20 20 21 14 17 18 25 23 19 16 19 18 25 21 19 12 22 27 25 24 24 17 22 12 27 20 19 19 17 9 11 17 18 31 30 32 30 28 28 25 25 25 24 22 22 23 22 23 23 22 21 20 19 18 17 16 16 15 15 15 15 15 15 15 14 15 15 16 16 16 14 14 13 14 15 17 16 15 14 14 14 15 16 16 16 16 17 16 15 15 14 13 12
20 20 21 21 21 19 17 23 28 21 21 22 20 20 18 22 15 17 13 14 21 31 32 28 27 25 34 22 23 22 19 20 16 17 14 21 29 29 29 28 26 29 25 25 23 23 23 24 21 22 23 24 23 22 21 20 19 19 18 17 16 15 16 16 15 16 15 15 15 15 14 14 15 14 15 14 14 14 14 16 16 15 15 15 14 15 17 16 16 16 15 15 14 14 14 13 11
17 18 22 19 16 14 18 22 27 21 23 19 22 21 18 22 18 19 12 20 23 24 27 31 28 25 27 24 16 18 13 15 19 18 20 25 27 22 27 27 26 27 26 23 23 23 22 22 20 21 24 23 22 22 20 20 19 19 18 17 16 16 15 15 16 16 16 15 15 15 15 15 15 17 16 15 14 13 14 15 16 15 14 14 13 17 17 16 16 15 15 15 14 13 13 12 11
12 15 16 12 19 16 19 19 21 24 26 22 22 13 17 17 21 16 11 16 19 25 26 24 29 30 32 21 21 19 17 14 16 18 22 20 24 25 27 27 24 25 24 24 22 23 21 23 20 22 23 23 22 21 20 20 20 20 18 17 17 16 15 15 16 16 15 15 15 15 15 15 16 16 15 15 14 13 12 13 15 14 14 14 14 16 17 17 16 15 14 13 13 12 12 11 10
11 13 16 14 18 15 11 17 22 25 28 19 21 18 27 20 20 24 13 21 15 19 19 25 27 24 30 28 21 19 14 14 16 14 24 20 26 27 29 26 24 25 24 23 23 23 23 24 20 20 21 24 22 21 20 21 20 19 18 17 17 16 16 16 16 16 16 15 15 15 16 16 16 15 15 15 14 13 12 11 12 13 13 12 13 14 13 15 15 14 12 12 11 11 11 10 10
20 18 13 13 17 11 19 18 23 26 25 22 23 19 24 22 29 18 15 13 12 8 16 15 28 24 24 17 16 20 16 13 15 14 21 24 31 29 28 23 24 24 23 23 23 22 25 23 21 20 20 22 22 21 21 20 19 19 18 18 17 17 17 16 16 17 16 16 16 16 16 15 15 15 15 14 13 13 12 11 12 12 13 13 14 14 14 13 13 12 13 12 11 10 10 10 10
21 15 14 17 20 18 18 19 24 27 31 28 27 23 26 16 29 21 25 11 10 20 16 25 29 32 23 21 24 17 12 17 17 20 17 29 29 25 23 24 24 24 24 24 23 23 26 20 20 19 19 21 22 22 21 20 19 18 18 18 17 18 17 16 16 16 17 17 16 16 16 15 16 15 14 13 13 12 12 11 12 11 12 13 14 14 14 13 12 13 12 10 10 8 8 8 9
17 17 7 13 21 17 21 21 25 28 30 28 26 24 28 30 29 21 19 20 20 28 13 15 23 26 22 17 17 10 10 10 19 22 25 27 25 25 23 23 24 24 25 23 22 22 24 21 20 19 19 19 21 22 21 20 19 19 18 18 18 17 17 17 16 17 17 17 16 15 16 16 15 14 13 13 13 12 13 12 12 10 10 12 13 13 13 13 12 11 10 8 7 7 8 8 9
20 20 9 13 18 18 20 23 25 26 30 31 29 25 23 25 27 18 19 24 17 11 15 19 23 25 22 19 19 14 20 20 23 23 24 25 25 23 23 22 27 27 25 25 25 23 21 20 19 19 20 21 22 22 21 20 19 19 18 18 18 16 17 17 17 17 16 16 16 16 15 16 16 14 13 13 13 13 12 13 11 11 10 11 12 12 12 11 10 8 8 7 6 6 7 7 8
22 16 17 23 17 23 20 24 27 24 30 34 32 30 30 31 29 23 22 16 15 17 17 18 21 24 30 26 22 16 21 20 23 23 23 24 24 18 22 25 26 29 29 26 24 23 20 22 19 18 18 19 21 20 19 18 18 18 18 18 18 17 18 18 17 17 17 17 16 15 14 13 14 13 12 13 12 13 13 12 12 12 12 11 11 11 11 10 9 7 6 6 6 7 7 8 8
27 21 17 24 23 24 25 24 26 26 29 35 30 31 33 34 31 26 22 24 22 23 18 20 26 27 28 27 21 16 21 21 21 23 23 22 20 21 22 27 30 28 28 26 23 22 22 20 23 17 17 19 18 17 17 17 17 17 18 18 18 19 19 18 18 18 17 16 15 15 13 14 13 12 13 12 12 12 13 13 12 11 12 12 10 10 10 9 8 7 5 5 5 6 7 7 8
24 25 23 27 27 24 25 27 25 24 31 32 36 30 30 33 28 30 22 24 19 15 22 16 23 36 26 20 15 17 21 22 21 22 22 20 19 27 28 26 27 27 27 26 25 22 22 21 21 22 21 19 17 17 16 17 19 18 19 19 19 19 19 18 18 17 17 16 15 14 13 13 13 12 12 12 13 12 13 13 12 11 11 11 10 9 10 8 7 6 5 4 4 5 6 6 7
27 20 24 27 28 28 25 27 26 22 26 32 31 35 30 29 30 25 22 23 22 22 27 21 28 27 21 19 19 17 21 22 22 22 22 20 22 27 27 27 27 26 25 25 25 24 23 20 23 21 20 22 19 18 16 18 19 19 19 19 19 20 20 19 19 17 16 16 15 14 14 13 13 12 12 13 13 13 12 12 12 11 11 10 10 9 8 7 6 5 5 5 5 5 6 6 7
29 26 25 32 25 28 31 29 27 28 28 28 29 28 36 35 26 26 17 24 26 26 17 29 35 27 24 22 18 18 22 21 24 20 20 19 21 26 23 26 24 24 23 24 25 25 23 22 23 22 23 20 19 19 18 20 20 20 19 19 19 20 19 19 17 16 16 15 15 14 14 14 13 12 12 12 13 12 12 11 11 11 11 10 9 10 8 8 6 6 6 6 6 6 6 7 7
31 25 30 32 31 30 31 35 30 35 29 28 31 29 32 30 28 26 23 24 26 21 12 20 35 27 23 23 18 21 23 23 22 17 14 16 26 24 23 25 23 22 22 25 25 24 24 22 24 22 18 20 20 17 16 20 21 21 19 20 20 20 19 18 17 16 16 15 15 14 14 14 13 13 12 12 12 13 12 11 11 10 10 10 10 9 9 8 8 7 8 7 8 8 8 8 9
28 28 33 33 35 34 35 35 29 32 36 29 34 27 29 31 32 29 25 26 25 15 16 16 16 20 24 24 25 24 25 23 21 14 19 21 22 21 24 22 23 23 22 21 21 21 24 23 21 20 20 18 16 17 16 19 20 21 20 21 20 20 19 18 17 16 16 15 15 14 14 12 11 12 13 12 13 12 13 12 11 9 10 11 10 10 10 9 9 10 9 9 9 10 10 10 11
26 30 33 36 38 37 34 37 30 42 27 30 26 30 34 37 32 31 23 21 25 26 11 11 18 30 23 28 27 28 25 21 17 17 18 22 23 19 18 19 20 19 20 22 19 21 21 21 20 17 17 17 18 18 17 19 21 21 19 21 21 20 18 17 16 16 15 13 13 13 13 11 8 8 11 11 12 10 11 12 12 11 10 11 11 11 11 10 10 11 10 11 11 11 11 12 11
29 38 39 40 37 39 31 36 34 24 32 29 28 28 29 30 32 37 27 31 24 28 34 15 22 30 31 31 34 28 26 25 21 20 19 18 19 20 18 17 20 20 20 20 19 20 22 21 18 17 18 19 16 17 17 18 20 18 17 18 17 18 16 16 15 13 13 10 13 12 10 12 12 12 11 12 10 10 11 12 12 11 10 10 10 11 11 11 12 12 13 14 13 13 11 8 7
37 37 41 42 37 37 29 33 32 35 31 22 33 28 28 28 25 34 37 28 34 38 33 23 26 28 29 28 30 29 27 22 21 19 20 19 19 19 18 18 18 20 20 19 19 19 22 20 18 18 18 17 17 16 16 16 18 15 18 16 17 14 16 16 13 15 13 12 13 13 11 11 11 11 10 13 11 11 12 12 11 11 10 10 10 10 11 12 13 14 15 14 13 10 7 8 10
37 37 44 44 30 34 34 35 33 32 32 33 25 31 32 31 31 19 31 33 35 36 31 28 30 28 28 29 28 29 25 24 22 20 19 18 18 19 16 17 19 18 20 20 18 20 21 19 19 19 19 18 17 15 16 17 16 15 15 16 13 12 13 14 14 14 13 12 13 11 12 11 9 9 14 16 14 9 10 11 11 11 11 10 11 9 11 12 15 14 14 13 8 8 9 8 13
35 46 49 41 30 38 36 37 34 34 36 35 31 15 31 32 32 28 25 28 33 34 36 30 30 28 32 29 29 28 26 24 22 21 19 18 17 16 18 18 18 19 19 17 19 20 18 18 17 18 18 19 16 16 15 16 15 15 15 15 14 13 13 13 12 13 12 13 13 12 13 8 9 7 8 8 8 9 7 6 7 8 7 8 10 8 8 11 10 11 9 8 9 9 12 10 10
34 42 40 39 32 38 35 33 34 35 33 33 28 29 30 25 32 34 33 31 28 29 29 36 27 31 31 31 29 27 28 24 24 21 21 21 20 17 18 17 17 15 19 19 20 19 17 17 19 19 18 16 16 16 16 16 17 14 14 15 14 13 14 14 11 11 11 12 9 10 8 10 7 5 7 7 6 6 7 7 8 8 8 8 11 9 9 8 9 10 8 10 9 9 10 7 4
45 38 40 41 41 43 28 34 37 36 40 34 33 31 28 26 28 33 32 35 27 34 27 27 27 32 30 30 27 24 23 24 22 23 21 19 19 16 17 19 19 20 17 18 19 17 17 16 16 18 18 16 17 16 14 15 15 14 13 14 14 14 15 13 10 10 12 8 8 8 10 9 7 6 7 5 5 4 3 4 4 4 4 3 6 9 5 6 8 8 8 7 8 7 4 7 8
40 48 36 41 42 44 37 32 29 36 37 38 38 30 37 29 33 29 38 29 28 29 26 16 34 36 33 33 27 27 25 24 24 23 21 20 19 20 18 20 18 16 15 18 17 17 17 17 16 15 17 16 16 16 16 14 12 14 14 15 14 15 13 11 9 10 10 8 8 7 9 8 8 7 6 6 5 5 5 6 5 5 3 4 4 6 4 3 4 4 5 6 4 3 5 7 10
43 51 37 40 42 44 38 40 38 33 34 37 33 38 35 36 37 28 31 31 31 24 23 30 38 29 27 26 26 23 22 19 21 21 15 18 19 16 17 19 18 17 19 19 18 17 16 17 14 15 15 17 16 16 16 14 13 13 13 13 12 12 12 10 10 9 10 9 6 8 11 10 8 7 6 5 5 2 3 4 6 6 7 8 8 5 5 8 7 6 7 5 2 5 6 8 7
42 41 40 35 40 41 39 38 42 42 41 33 40 40 40 40 36 38 31 33 30 29 31 29 36 29 24 26 28 26 24 22 21 21 19 19 17 19 20 20 20 18 21 18 18 16 16 15 14 14 14 19 18 16 13 14 13 15 14 13 11 10 12 9 8 9 11 10 8 13 13 10 8 7 6 5 4 2 4 5 5 7 8 8 8 9 7 7 7 3 5 7 7 5 5 4 6
30 37 38 41 41 40 35 39 40 39 42 37 40 36 45 39 40 38 28 29 24 26 28 32 28 32 28 27 26 25 26 24 24 21 17 14 17 22 19 19 17 19 21 20 18 17 16 14 14 14 14 15 16 16 13 14 12 14 13 10 10 9 12 11 10 11 11 12 16 20 15 16 11 9 7 8 6 6 7 7 8 8 9 9 8 11 6 8 6 7 8 6 5 5 5 7 7
35 36 35 41 40 41 35 37 39 40 45 42 42 41 37 36 42 44 32 22 25 19 9 26 34 37 32 29 28 26 26 25 22 21 24 18 21 25 22 23 17 20 21 20 18 17 17 14 14 14 11 15 14 14 14 13 14 13 12 9 10 9 10 11 10 10 14 20 22 15 13 10 8 10 12 14 14 14 14 10 9 8 10 7 7 9 6 3 6 7 8 7 5 9 8 8 8
31 35 44 36 38 51 41 43 38 37 45 38 41 43 44 40 39 39 40 29 19 25 21 22 11 20 23 24 20 21 26 28 27 23 22 18 16 22 24 18 22 21 18 20 19 19 17 14 15 15 11 13 14 12 15 12 13 11 11 10 10 9 10 11 11 11 15 18 17 14 10 8 8 12 16 16 14 11 12 13 12 12 8 5 5 4 6 6 4 4 5 4 8 5 7 12 12
32 35 38 37 38 42 42 41 37 40 40 34 40 54 45 47 42 34 28 39 22 29 29 25 32 29 21 21 22 21 21 23 26 27 23 17 16 19 22 18 22 21 20 19 21 20 17 15 13 14 12 15 14 12 11 13 12 12 10 12 10 11 10 11 9 12 16 16 14 13 9 8 6 6 10 12 15 14 15 13 9 9 8 6 5 3 4 6 2 7 7 5 6 8 16 15 16
41 33 36 37 37 44 33 49 39 43 37 35 37 48 38 42 41 32 30 13 27 25 35 28 32 31 30 28 24 24 24 24 24 23 20 17 18 19 19 19 20 20 19 19 22 19 17 17 13 13 10 13 13 11 13 13 11 12 12 11 11 11 11 10 10 13 14 14 12 13 10 10 7 7 6 12 17 13 13 14 8 13 12 11 4 3 5 4 9 8 10 10 9 14 14 16 16
30 37 41 34 39 35 36 34 43 54 44 39 39 44 42 39 42 41 29 31 17 28 23 25 32 33 27 27 28 27 25 22 22 22 23 20 21 20 21 21 20 20 20 22 20 19 18 16 13 12 11 13 12 11 12 13 13 11 12 11 12 11 10 9 11 12 13 13 12 10 10 8 9 8 6 9 17 20 17 14 13 16 19 12 3 5 4 7 7 10 7 8 10 9 16 15 15
33 35 28 41 34 32 34 37 32 45 52 36 47 45 40 38 37 38 38 29 28 30 27 22 19 31 32 28 27 25 23 19 21 22 23 20 22 21 22 20 20 21 20 22 21 19 18 16 16 13 14 14 12 11 12 11 12 12 11 13 12 10 12 16 18 15 12 13 11 11 9 9 7 6 4 9 14 16 19 19 16 15 11 4 7 5 6 11 9 10 7 8 10 12 15 15 14
33 32 37 30 37 35 44 28 39 35 41 42 42 54 39 26 28 33 34 34 32 34 29 20 21 20 23 29 28 25 26 25 24 23 23 21 23 22 21 20 18 21 21 22 20 21 19 17 15 14 14 14 12 12 13 12 12 13 10 13 12 14 16 19 18 12 9 12 12 11 10 9 8 7 5 5 8 13 12 11 10 10 8 6 5 7 5 8 10 9 6 6 8 11 13 15 13
31 32 34 40 36 39 33 41 30 37 37 45 40 45 42 35 29 28 30 32 33 36 33 29 27 26 24 25 25 26 26 29 26 24 23 21 23 22 23 21 19 22 22 22 20 19 18 17 14 14 15 15 12 12 11 13 12 10 9 12 15 14 14 16 14 8 6 10 10 10 11 9 8 8 5 5 10 7 8 9 9 7 7 7 9 10 9 8 7 9 8 11 12 10 13 14 15
35 32 33 32 38 40 42 36 30 30 39 49 48 51 42 39 38 29 28 29 37 33 34 32 27 26 25 24 24 25 24 25 25 24 23 24 23 24 23 21 19 22 22 22 21 20 18 17 13 15 14 15 12 12 12 13 12 12 14 12 13 11 11 13 13 9 5 9 9 10 10 9 7 7 6 6 10 4 10 10 8 6 5 9 10 9 8 8 7 8 10 13 14 15 13 15 14
34 35 32 34 35 34 33 36 33 33 41 44 48 52 46 39 42 32 25 24 32 35 32 33 29 28 26 24 24 26 26 25 22 28 26 25 25 24 23 21 19 21 22 23 22 20 19 22 19 17 16 15 14 14 14 15 14 13 10 11 12 10 12 12 15 12 8 8 9 9 9 9 7 6 5 6 5 9 8 7 10 11 11 10 12 11 10 7 5 7 9 9 15 14 12 10 11
37 33 33 37 36 35 35 36 33 38 40 34 44 47 52 43 34 37 33 28 27 35 37 31 32 27 22 25 25 26 25 22 22 22 22 22 24 23 21 21 20 26 22 23 23 22 20 20 19 19 15 15 13 13 14 15 11 16 15 12 11 11 11 14 15 14 12 8 9 10 10 9 9 7 7 5 6 10 9 8 10 10 11 11 9 8 6 6 5 5 6 12 8 15 12 11 12
35 39 34 35 40 33 31 36 31 36 39 35 38 47 43 43 40 31 38 36 32 27 33 34 30 28 23 25 24 25 24 24 25 28 26 26 25 24 23 20 22 24 24 24 20 22 22 20 18 18 16 16 14 15 16 15 11 13 14 13 14 12 7 9 13 13 9 11 10 10 10 9 8 9 7 7 11 10 9 9 9 11 7 9 10 7 6 5 4 4 4 10 10 7 10 11 13
35 35 38 38 30 36 38 37 36 36 43 36 33 39 39 36 37 36 34 40 34 28 27 29 27 29 26 27 24 28 28 29 28 30 28 27 27 26 22 22 23 22 23 22 22 23 20 19 17 18 19 17 17 16 14 11 13 12 11 14 11 10 12 14 13 12 12 10 10 9 11 11 11 9 8 9 9 8 8 9 10 10 9 9 9 8 7 5 4 3 3 6 11 12 11 7 6
35 36 35 37 33 37 40 32 40 37 37 36 35 37 35 34 36 42 35 35 35 31 30 25 27 26 25 22 22 31 32 32 32 29 28 27 27 27 26 23 22 24 24 24 22 22 20 20 20 19 21 19 18 17 14 15 15 13 14 12 10 12 12 13 14 12 11 10 12 9 11 9 8 8 8 9 9 8 9 10 10 9 9 6 6 8 8 7 5 5 7 7 8 12 9 8 3
33 35 35 30 34 36 36 38 33 39 40 47 38 46 44 30 39 42 34 38 35 30 30 29 29 29 26 26 22 27 32 34 37 35 35 33 31 24 24 24 25 25 26 22 22 21 19 20 19 19 18 18 18 16 16 17 17 18 18 17 17 16 16 16 17 18 13 14 13 10 10 9 7 8 11 10 8 8 10 9 9 9 9 9 9 8 7 7 5 6 5 7 8 8 13 9 7
32 35 33 36 35 36 36 36 38 39 44 41 44 46 38 34 33 36 35 32 34 31 37 39 32 31 31 29 23 30 34 33 33 33 32 30 28 29 27 28 28 27 25 19 19 19 19 19 19 20 19 18 18 17 17 17 16 16 18 16 16 18 18 13 10 10 12 11 11 10 11 9 9 10 9 10 10 11 11 11 11 9 8 8 7 10 10 8 8 6 6 8 6 8 10 9 9
39 25 31 34 40 40 38 41 44 39 28 35 41 47 35 32 36 33 33 32 35 36 34 41 41 31 30 26 24 30 35 34 36 35 34 34 33 33 31 29 27 28 22 20 20 19 20 19 19 19 18 18 18 19 18 18 19 16 16 14 14 16 16 16 14 12 9 10 12 11 10 9 9 9 10 9 9 10 10 10 11 9 9 8 8 9 10 7 9 8 8 8 9 9 9 13 9
34 26 31 33 40 41 41 43 41 40 33 40 44 41 46 37 27 34 37 40 36 39 41 44 40 35 30 26 26 32 37 35 36 37 35 34 33 31 29 29 26 24 25 23 21 21 19 19 19 18 18 18 18 19 20 18 17 18 18 16 14 11 13 13 11 10 11 11 12 11 11 9 8 8 9 10 9 9 8 9 9 8 7 8 10 9 8 8 8 9 9 12 10 10 9 8 11
29 31 30 32 32 40 41 41 40 35 38 33 37 42 46 34 33 29 39 40 42 43 42 41 40 36 33 29 27 34 35 34 34 36 35 34 33 32 30 28 25 25 23 20 19 19 19 19 20 20 19 19 19 19 19 18 16 18 17 15 16 15 14 12 12 13 12 11 11 10 10 10 9 8 8 8 10 9 8 7 6 7 8 9 10 9 9 9 8 9 8 8 8 11 10 11 11
27 31 33 32 33 37 37 36 37 34 40 31 34 37 36 37 34 35 31 46 40 37 35 34 38 36 34 30 29 35 36 36 34 33 33 33 31 31 27 29 27 23 21 22 21 21 20 20 23 21 20 20 19 20 18 19 18 17 17 16 17 18 17 17 16 14 14 12 13 12 10 11 11 10 8 9 9 9 8 9 11 10 10 11 11 10 9 9 8 9 8 9 10 11 11 11 11
33 40 36 29 31 34 37 32 28 36 32 30 37 41 35 40 31 36 29 26 38 33 30 35 36 37 36 29 30 34 34 33 38 36 36 31 31 29 27 27 26 25 22 24 23 21 20 21 23 24 21 19 21 21 19 19 18 19 15 16 17 19 19 19 20 20 19 17 13 13 11 11 12 12 9 9 11 9 9 10 9 9 10 10 11 10 9 9 9 9 10 10 10 8 9 12 10
34 34 34 34 28 34 40 35 36 29 30 23 32 37 41 46 28 25 33 32 35 33 33 34 35 37 33 33 31 34 35 34 36 36 38 35 34 34 31 27 26 25 26 26 27 24 22 22 25 26 24 22 24 23 22 20 18 18 18 17 16 18 18 18 19 18 16 16 15 14 13 12 11 11 11 11 8 8 10 10 9 10 11 11 11 10 8 8 8 8 10 11 12 11 11 11 12
34 40 37 35 34 33 26 31 25 22 26 31 36 34 43 26 39 30 32 31 31 34 32 31 35 33 31 31 32 34 36 38 34 37 36 35 33 32 31 31 30 27 25 28 27 25 22 23 25 25 24 24 22 22 22 21 19 18 16 16 17 19 17 17 17 18 16 15 15 15 14 15 13 12 13 9 11 11 9 9 10 9 8 9 10 11 10 9 9 11 10 11 10 10 11 11 12
35 34 40 32 31 38 26 34 32 25 25 34 35 43 41 33 21 37 36 25 26 32 35 28 33 32 31 32 35 36 35 34 35 37 36 37 36 32 32 31 29 27 26 27 27 26 22 23 26 25 25 23 23 23 21 20 19 18 16 16 18 17 17 17 17 17 17 17 15 13 12 13 13 11 13 10 11 11 10 10 10 9 9 9 10 10 11 10 10 12 11 11 12 11 12 13 11
32 37 34 35 33 19 29 25 29 28 30 29 36 34 22 35 17 25 39 33 30 31 33 28 32 32 33 34 36 37 36 35 35 34 35 34 34 30 29 28 27 26 26 26 27 28 24 26 25 25 25 25 24 22 20 21 19 18 16 17 19 18 16 15 15 16 15 16 15 15 15 13 12 14 12 11 9 11 12 11 10 10 9 10 11 11 11 11 10 11 11 12 13 10 13 12 10
28 36 39 34 26 27 18 14 23 18 24 27 17 27 30 24 32 25 31 34 34 31 35 34 32 34 34 35 34 37 37 37 36 35 33 35 31 30 30 29 27 26 27 28 29 29 27 26 25 25 23 22 23 22 21 20 19 18 17 19 18 17 17 17 18 17 16 15 14 14 15 12 14 13 13 10 10 10 11 11 11 10 10 10 12 12 11 10 10 11 12 11 12 10 11 10 10
26 36 32 31 31 26 26 26 26 31 31 26 25 29 30 31 34 23 21 36 35 29 33 35 33 34 33 33 31 39 38 37 37 38 39 38 34 34 32 30 27 28 28 26 27 25 23 24 25 25 24 25 23 23 21 20 20 19 19 20 18 18 17 16 16 18 16 16 14 14 12 15 15 15 13 11 13 12 11 11 11 10 9 10 12 11 11 11 11 10 10 11 11 11 11 10 8
32 28 28 46 35 32 29 24 22 30 31 28 30 27 33 32 29 30 27 31 36 32 29 29 33 36 34 31 29 39 37 38 38 40 37 38 35 34 32 31 31 28 26 26 26 25 22 21 23 25 25 24 23 22 20 19 19 19 19 20 19 18 16 16 17 17 16 15 16 15 15 16 15 14 15 14 13 12 12 11 11 10 10 12 11 12 11 11 9 11 11 12 10 10 11 10 7
33 29 31 32 29 29 30 32 19 33 27 25 27 37 37 33 30 22 25 22 26 35 27 26 31 33 33 29 26 35 39 37 37 36 34 34 35 35 35 32 32 30 28 26 24 23 23 23 24 23 23 22 22 21 21 21 20 18 18 19 18 17 16 17 18 18 17 16 16 16 16 17 16 14 14 14 13 12 13 12 10 11 11 11 11 10 12 11 11 10 11 11 10 11 11 10 8
33 32 30 29 37 21 25 27 32 24 25 24 24 30 33 26 23 24 30 28 23 22 25 23 28 28 27 27 26 35 35 35 37 36 35 33 33 33 31 30 29 28 25 24 24 25 25 24 24 24 26 26 25 23 21 20 20 20 20 21 20 18 17 17 18 17 17 17 15 16 16 15 15 14 15 14 13 14 13 12 12 11 12 12 11 12 11 12 12 11 10 10 11 11 10 7 8
25 27 28 27 32 35 30 26 28 34 28 26 24 24 25 22 25 20 20 23 24 17 24 27 24 25 26 25 25 33 34 34 35 34 33 33 30 30 28 28 27 27 28 26 25 24 24 26 28 26 26 26 24 24 22 20 19 21 21 21 20 17 18 17 18 17 17 17 16 18 17 16 16 15 14 15 15 14 12 13 12 12 12 11 11 12 11 12 13 11 9 10 11 11 9 7 7
Wind_Speed
12 9 9 9 3 0 2 2 2 2 1 5 5 3 5 5 3 3 7 3 9 6 13 11 12 5 6 2 7 10 6 5 2 2 1 1 11 16 18 19 17 17 16 12 10 10 12 15 17 18 18 19 19 19 17 17 16 15 14 13 13 12 12 12 13 12 12 12 12 12 12 11 12 13 11 11 11 11 12 13 12 11 11 11 11 12 13 12 12 13 12 12 12 11 11 10 9
7 9 9 8 2 3 2 0 2 3 2 5 8 6 5 5 5 4 4 4 5 11 15 16 12 12 10 9 1 6 9 7 6 6 2 11 14 13 17 18 17 19 15 12 9 9 11 13 17 18 19 19 19 18 17 16 16 15 15 14 13 13 13 13 12 13 12 12 12 12 11 11 11 11 12 12 11 11 11 13 13 12 11 11 10 12 13 12 12 12 12 11 11 10 9 9 8
8 6 7 6 2 3 2 1 4 4 7 7 10 8 6 7 3 11 4 13 16 16 15 15 19 15 12 5 6 4 1 6 9 7 7 14 15 8 16 16 15 17 17 11 10 9 9 12 16 17 19 19 18 18 17 16 16 15 14 14 13 13 12 12 13 13 12 12 12 12 12 11 11 13 12 11 10 10 12 12 12 11 10 10 10 14 13 12 12 12 11 10 9 9 9 8 8
7 4 2 2 3 1 2 2 3 4 8 6 10 8 2 7 7 8 5 5 14 17 13 7 9 8 22 10 2 7 6 5 8 10 5 6 10 14 15 17 16 14 13 12 10 9 8 13 16 17 19 19 18 17 17 16 16 16 15 14 14 13 12 12 13 12 12 12 12 12 12 12 12 13 12 11 10 10 9 11 11 10 9 9 11 13 13 13 12 12 10 9 9 8 8 8 8
4 3 4 1 2 2 1 1 3 1 10 4 7 9 7 8 6 6 2 1 5 7 10 9 9 6 10 17 10 5 2 8 8 5 6 9 16 16 17 17 15 14 13 12 11 10 10 17 16 15 17 19 18 17 16 17 16 15 15 14 14 13 13 13 13 13 12 12 12 12 13 12 12 12 12 11 11 10 9 9 9 10 8 7 11 10 10 12 11 10 9 9 8 8 8 8 8
7 2 5 2 1 3 0 2 6 7 11 4 8 8 14 7 5 10 10 3 5 3 9 10 12 12 6 3 2 5 9 5 8 4 9 12 19 20 19 15 15 14 14 11 11 9 10 16 16 16 16 18 18 18 17 16 16 15 14 14 14 14 13 13 13 13 13 13 12 13 13 12 11 11 11 11 10 10 9 9 10 9 9 9 10 11 11 10 10 9 10 8 8 7 7 7 7
4 6 1 1 1 1 2 4 7 7 16 7 10 12 17 13 12 12 13 1 3 4 1 12 14 12 8 2 8 3 3 9 5 7 8 18 19 17 16 15 15 15 14 12 11 10 12 15 15 15 15 17 18 18 17 16 16 15 15 14 14 15 14 13 13 13 13 13 12 13 13 12 12 12 11 10 10 10 9 9 9 9 8 9 10 10 10 9 9 10 8 7 7 6 6 6 7
3 0 1 3 2 2 6 8 9 4 14 13 14 11 16 18 18 4 10 4 2 1 5 9 13 8 4 3 5 1 5 5 11 12 18 17 17 17 15 14 15 15 14 12 11 10 15 16 15 15 15 16 17 18 17 16 16 15 15 14 14 14 14 14 13 13 14 13 12 12 12 12 12 11 10 10 10 9 10 9 9 9 8 8 9 9 10 10 8 7 7 6 5 5 5 6 7
2 2 2 3 3 2 4 8 7 4 12 17 17 13 14 14 20 4 8 3 4 1 5 13 13 11 3 9 6 6 9 13 13 16 16 17 17 16 12 14 16 15 15 13 11 11 11 15 15 15 15 15 18 18 17 16 16 16 15 15 14 14 14 14 14 14 13 13 12 12 12 12 12 11 10 10 10 10 10 10 9 9 8 9 8 9 9 9 7 6 6 4 4 4 5 5 6
2 3 1 2 3 8 5 6 10 10 11 21 15 16 15 14 18 17 13 10 4 1 2 7 14 14 13 11 7 5 6 13 14 14 14 15 13 12 15 17 18 18 14 12 11 11 9 16 15 15 14 15 16 16 16 15 15 15 15 14 15 14 15 15 14 14 14 13 12 12 11 10 11 11 10 9 9 9 10 9 9 9 10 9 8 8 8 8 7 5 4 4 4 5 5 6 6
2 2 2 3 5 7 8 7 10 6 11 16 17 18 15 12 12 14 12 12 11 1 3 7 13 16 12 7 4 5 10 11 14 13 13 12 10 13 13 16 17 17 15 14 12 10 11 10 18 14 14 15 14 14 13 14 14 14 14 14 14 15 16 15 15 15 14 13 12 11 10 10 10 10 10 9 9 9 9 9 9 9 10 10 8 7 6 6 6 5 3 3 3 4 5 5 6
4 3 2 7 7 6 7 7 7 6 8 13 18 17 11 13 12 11 11 10 9 4 5 3 7 11 11 8 4 8 11 10 10 11 10 9 11 17 16 13 16 16 17 15 12 9 10 11 11 16 16 15 14 14 13 14 14 15 15 16 15 15 15 15 15 14 14 13 12 11 10 10 10 10 10 9 8 8 8 9 8 8 8 9 8 6 5 4 4 4 3 1 2 2 3 4 5
6 4 5 4 5 6 6 8 9 8 7 13 16 11 11 15 13 15 13 9 12 5 5 9 13 11 5 6 5 7 11 10 10 10 9 7 15 14 16 15 16 17 15 14 13 11 10 10 9 10 13 18 15 14 13 14 15 15 14 15 16 16 16 16 15 14 13 12 12 11 10 10 10 10 10 9 9 8 8 8 8 8 8 8 7 6 4 3 3 3 2 0 2 3 3 4 5
6 5 3 7 4 5 11 11 6 8 10 8 11 11 10 10 11 14 6 11 8 5 8 18 13 14 11 7 4 6 9 8 11 11 8 7 13 15 15 16 16 14 15 14 13 11 10 9 9 9 11 10 9 13 15 16 15 16 14 14 15 16 16 15 14 13 12 12 12 11 11 10 10 10 9 9 9 9 8 8 8 8 8 8 7 6 4 3 3 3 2 1 2 3 4 5 5
7 3 4 5 6 7 8 9 11 11 8 8 10 10 10 10 14 16 16 6 6 4 2 13 16 15 7 12 5 8 10 12 11 11 7 11 17 15 15 15 14 13 13 13 12 12 10 10 9 8 9 8 8 6 6 12 17 16 15 16 16 16 15 15 14 13 13 12 12 11 11 10 10 10 9 9 8 8 8 8 7 7 7 7 7 6 5 4 4 3 4 3 3 4 5 6 6
4 4 4 6 11 12 8 11 8 10 10 9 9 12 11 12 17 14 11 11 2 3 2 2 6 3 13 13 16 15 16 14 11 7 12 15 15 14 15 14 13 13 12 13 11 10 10 10 9 8 8 8 7 6 7 8 13 16 16 16 16 16 16 14 13 12 13 12 12 10 10 7 8 6 10 7 9 9 8 6 8 7 7 8 7 7 7 6 6 6 5 5 5 6 7 6 6
4 4 7 9 14 14 10 10 9 12 4 8 10 15 14 12 18 14 10 3 8 3 3 2 3 17 14 14 18 19 17 12 10 12 12 13 12 10 9 10 10 10 9 12 11 10 11 10 10 8 8 9 8 7 6 7 10 15 14 16 16 16 14 14 13 13 12 10 9 9 9 4 4 4 5 3 8 4 8 9 9 8 8 8 8 8 7 8 7 8 7 7 7 7 6 6 6
4 8 11 14 12 15 9 13 11 5 7 13 10 13 15 14 12 12 11 13 7 8 7 5 12 11 19 17 23 18 15 14 13 14 11 11 10 10 9 9 11 10 10 10 10 11 11 10 10 9 8 9 8 7 6 6 8 11 8 9 9 11 12 12 9 6 8 4 9 7 4 5 4 4 4 7 3 4 5 9 9 8 8 8 8 8 8 8 8 8 8 7 6 5 6 3 3
9 6 11 16 12 10 9 9 11 11 14 11 9 14 12 9 7 5 12 13 15 10 3 12 17 11 15 18 20 20 17 15 14 13 13 12 11 12 10 9 10 11 11 10 10 12 11 11 11 10 9 10 10 8 6 6 7 6 7 7 7 9 9 8 5 6 4 4 4 4 4 3 4 4 4 6 6 8 5 9 8 7 7 7 7 7 8 8 8 8 8 7 5 5 3 3 3
11 10 14 15 9 10 11 14 13 12 12 13 17 10 15 13 9 2 9 14 16 19 9 4 13 18 14 14 18 17 16 16 15 14 13 11 9 10 10 10 11 11 12 11 10 10 11 11 12 11 11 10 10 7 7 7 6 6 6 6 6 5 5 5 5 5 4 4 5 4 4 4 4 5 8 11 9 5 5 8 8 6 6 6 6 5 5 7 8 8 8 7 4 2 3 3 3
8 13 14 12 9 10 14 13 13 15 12 12 18 7 13 13 13 8 10 14 20 18 19 16 11 19 22 19 19 16 16 16 15 14 13 12 9 6 7 8 9 11 10 8 10 10 11 11 10 11 11 11 10 8 8 7 7 6 6 6 6 5 5 5 5 4 5 5 5 5 4 4 4 5 4 4 5 4 3 3 2 2 1 1 5 2 2 3 4 2 2 3 2 3 4 5 4
6 16 17 13 9 16 12 13 19 15 16 12 15 17 8 8 12 19 15 12 7 12 18 25 11 19 19 19 16 17 17 16 16 15 14 14 13 9 7 6 6 9 8 10 11 11 10 11 12 11 10 10 10 8 8 8 8 7 7 6 6 5 6 5 5 5 5 6 5 4 4 3 4 4 4 5 4 4 4 3 3 3 3 3 3 4 3 3 3 4 3 4 5 5 4 4 2
13 12 16 17 16 13 9 15 15 16 15 15 16 17 7 8 10 12 15 18 9 7 17 16 12 22 20 20 17 16 16 16 15 16 15 13 12 10 10 8 9 10 8 10 11 9 10 9 10 11 10 10 11 9 8 8 7 7 7 7 7 7 6 5 5 5 5 5 5 4 6 5 5 5 4 4 3 2 2 1 2 3 3 2 2 4 3 4 5 4 5 5 3 4 2 2 4
13 14 15 17 17 20 15 15 12 17 21 19 16 15 12 8 17 8 15 17 19 12 10 8 20 20 21 20 17 18 17 16 16 15 15 14 13 14 12 10 10 9 9 10 10 9 10 11 10 10 10 9 9 9 9 8 7 8 7 8 7 7 6 6 5 6 6 5 5 5 5 5 5 5 4 4 3 2 0 0 0 1 1 1 1 3 3 1 2 3 2 3 2 2 3 2 4
17 19 17 16 17 17 18 20 19 14 13 17 13 17 16 17 12 7 15 16 17 14 5 19 15 19 15 17 17 15 15 13 13 14 10 11 10 10 10 9 11 10 11 11 9 10 10 10 9 10 10 11 9 9 9 7 7 7 6 7 7 7 6 5 6 5 6 4 3 4 5 5 4 4 4 3 2 1 0 0 2 3 2 3 2 2 2 1 0 3 2 2 1 2 3 5 4
15 19 17 14 14 16 16 17 20 23 16 9 15 22 22 20 15 14 8 14 17 15 7 15 24 15 16 18 20 18 16 15 14 13 12 12 10 13 13 12 11 11 12 11 10 8 8 10 9 9 9 11 10 8 7 8 7 8 7 7 6 6 6 6 5 5 5 5 4 2 5 5 5 4 4 2 2 0 2 1 1 2 2 3 2 2 3 2 4 2 3 4 4 3 3 3 3
10 14 16 17 18 15 12 18 19 18 19 17 14 14 24 25 18 9 8 7 11 15 11 16 19 21 19 16 16 16 17 16 17 13 10 8 11 13 13 12 11 12 12 12 10 8 8 9 8 8 8 10 9 9 7 8 6 8 7 6 6 6 7 6 6 6 5 4 4 4 4 4 4 5 4 2 2 1 1 0 1 1 1 4 4 4 3 5 3 3 5 4 3 2 2 2 2
16 16 14 17 16 16 16 15 19 15 16 22 22 21 16 16 18 17 12 11 5 8 6 19 23 24 20 20 19 17 16 16 13 13 16 12 12 14 14 13 11 13 13 13 10 8 8 8 9 8 7 9 9 9 8 7 8 7 7 6 6 5 7 6 6 6 7 4 4 6 2 3 4 5 5 2 2 1 0 1 0 1 2 2 4 5 3 2 3 4 3 2 2 3 2 3 5
16 16 17 17 15 16 17 20 15 16 16 19 22 20 21 17 13 16 22 18 8 5 14 11 4 4 15 15 12 12 15 17 16 14 14 11 10 13 15 11 13 12 9 12 12 11 10 8 9 7 7 9 7 8 8 7 7 6 7 6 6 5 6 7 6 6 7 5 3 6 4 3 4 4 3 3 2 2 0 1 1 1 2 3 2 2 3 2 2 2 2 2 1 2 5 7 6
15 15 13 13 14 15 15 16 19 19 13 17 17 18 20 21 21 18 12 21 15 9 5 16 19 15 10 10 11 9 9 14 17 16 14 10 9 12 14 12 15 12 10 9 11 12 9 7 6 6 7 9 8 7 7 7 7 7 6 6 6 6 6 7 6 7 8 6 5 6 4 4 4 4 4 4 4 4 2 1 1 3 2 1 1 2 1 1 2 4 4 2 3 5 9 6 8
9 12 11 10 10 12 11 13 17 22 17 15 21 17 16 23 25 19 16 8 16 16 14 11 15 17 18 17 14 13 12 12 14 15 13 11 12 12 13 13 13 13 10 11 14 12 11 9 6 7 6 7 8 7 8 8 7 7 7 6 6 6 6 6 6 7 7 6 6 6 5 5 4 4 3 4 3 1 1 1 0 1 3 1 1 1 2 2 5 3 4 5 6 7 7 7 8
8 8 13 11 12 8 13 14 17 22 16 19 14 15 17 19 24 24 17 9 6 14 10 11 20 18 16 16 18 17 15 14 14 15 14 13 14 12 13 14 13 13 13 13 12 11 11 10 7 8 6 7 7 7 8 8 8 7 7 7 7 7 6 5 6 6 7 6 6 6 5 5 5 5 4 4 3 2 2 2 1 2 1 2 1 4 2 5 3 4 3 5 6 5 8 6 6
8 9 8 13 11 10 10 17 15 22 21 14 18 11 12 16 18 18 22 15 8 7 6 12 12 22 20 16 16 15 14 12 13 15 14 13 13 13 13 13 13 14 13 14 13 11 11 11 9 8 9 9 7 7 8 7 8 7 7 8 7 6 6 6 6 6 7 7 6 6 6 5 4 4 3 6 8 8 6 7 6 4 3 1 4 4 4 5 4 4 4 5 6 6 7 8 6
9 7 9 9 14 12 13 7 20 14 19 17 17 16 17 6 14 17 18 21 19 11 9 9 13 10 15 18 17 15 16 15 14 15 15 13 13 14 13 13 12 14 14 14 13 13 12 11 9 8 8 8 7 7 8 7 7 7 6 7 6 7 6 6 6 5 6 6 6 6 6 5 5 4 3 2 6 8 8 7 6 6 4 4 3 4 3 2 4 4 3 4 5 6 6 8 7
9 9 8 10 11 15 12 12 8 19 15 22 17 18 21 16 6 13 20 20 21 19 12 11 14 10 12 15 16 17 16 18 16 15 15 14 14 14 14 13 12 14 13 14 13 12 11 10 8 8 9 8 7 7 7 8 7 6 5 7 8 6 5 5 6 5 4 5 6 6 7 5 5 5 3 3 3 2 4 5 5 4 4 5 6 5 4 3 4 3 5 6 5 5 6 6 8
15 14 10 9 9 10 13 11 10 11 16 15 23 17 20 20 17 8 7 14 17 17 13 11 11 16 12 14 14 14 15 16 15 15 15 15 14 14 12 11 12 13 13 13 14 13 11 10 7 8 8 9 7 7 7 7 6 7 7 7 7 5 4 5 4 5 4 5 5 5 6 5 5 4 4 4 3 3 5 6 5 3 4 6 6 5 3 3 4 5 7 8 9 7 6 6 7
15 14 15 14 12 11 9 10 10 11 11 14 15 21 22 20 19 16 9 8 16 19 20 12 10 13 14 14 14 15 16 15 14 18 17 17 16 14 12 11 11 13 14 15 14 13 12 11 10 10 8 9 8 8 7 8 7 7 5 6 7 5 6 4 5 4 4 4 4 5 5 5 4 3 3 3 3 5 5 5 6 6 6 6 6 5 4 4 3 3 5 5 9 8 4 4 4
16 15 14 14 13 9 11 14 12 11 12 10 20 19 26 21 15 16 19 10 9 21 22 19 15 12 13 16 16 17 15 10 14 13 14 15 15 15 13 11 13 16 14 15 15 13 12 11 11 11 8 9 8 8 8 8 6 7 7 7 6 6 6 5 5 4 4 5 4 4 5 5 5 3 3 3 4 6 6 5 6 6 6 6 5 4 4 3 3 2 3 6 4 8 4 4 6
16 13 12 13 12 11 12 13 16 13 12 9 12 25 18 17 17 14 15 20 11 8 13 16 16 12 10 13 16 16 13 13 15 17 17 16 17 16 14 12 12 15 16 15 13 12 12 11 11 11 8 8 8 9 9 8 5 7 7 5 8 5 3 4 5 5 4 5 4 4 4 4 5 4 3 3 6 6 6 5 6 6 5 5 6 4 4 4 2 2 3 6 5 2 4 4 6
13 12 11 12 10 10 8 10 11 15 11 7 10 10 14 13 17 22 12 20 16 9 10 12 15 15 13 14 14 17 16 17 18 18 18 17 17 16 13 13 13 13 13 13 13 12 11 10 9 11 9 8 9 8 8 6 8 7 7 8 7 6 5 5 6 5 4 5 5 4 4 5 5 4 3 5 5 5 5 6 6 6 6 4 6 5 4 4 3 2 2 4 7 6 3 2 1
11 14 12 11 14 14 13 9 8 13 17 15 12 12 8 11 14 15 14 15 20 16 7 9 11 12 14 13 13 19 20 20 20 19 18 17 17 17 16 14 14 14 14 14 13 13 10 11 10 11 10 10 9 9 9 8 9 8 7 7 6 6 5 5 6 4 5 5 4 4 5 4 4 4 5 5 5 5 5 6 6 5 5 4 4 5 4 4 3 3 4 4 5 7 6 3 1
10 13 16 14 12 15 16 17 19 7 12 16 12 9 13 9 23 23 16 14 13 15 17 9 11 8 8 14 13 18 19 21 24 22 22 21 20 16 14 16 16 15 15 13 13 13 11 10 10 10 9 9 9 10 10 9 9 10 10 9 9 8 8 7 8 8 6 6 6 4 4 4 4 5 4 5 5 5 6 6 5 5 6 6 5 5 4 3 3 4 3 5 4 4 7 5 3
10 9 12 18 18 15 15 19 15 8 8 10 13 11 6 6 12 18 18 19 17 10 15 19 14 10 11 15 14 18 18 18 20 21 20 19 18 19 18 17 17 17 14 11 12 12 12 11 10 12 11 9 9 9 11 10 9 9 11 9 9 10 10 6 6 5 6 5 5 5 4 4 5 6 5 6 6 6 6 6 6 6 5 5 4 6 6 5 4 4 3 5 3 5 6 5 6
10 7 12 14 19 19 20 20 16 9 10 12 12 13 8 6 8 14 17 18 20 19 13 17 18 14 13 16 15 20 20 20 19 20 22 22 22 21 20 19 17 17 14 12 12 11 13 13 11 12 10 10 9 10 11 11 11 10 10 9 8 9 9 9 8 6 5 5 6 6 5 5 5 5 6 5 5 6 6 6 6 6 5 5 5 5 6 4 6 5 5 4 4 3 6 7 5
8 8 14 15 14 19 18 17 14 8 6 12 9 13 13 9 5 16 17 17 22 23 21 17 19 17 17 16 15 19 21 22 22 20 21 21 21 20 19 18 17 15 13 14 13 12 12 10 11 11 11 10 10 11 11 10 10 11 10 9 8 6 7 7 6 5 6 6 7 5 5 5 5 5 5 5 5 5 4 5 5 5 5 4 5 5 4 5 5 6 6 6 5 5 5 4 5
12 16 15 15 13 12 16 15 14 9 8 13 15 13 10 9 10 9 20 23 22 23 22 19 19 18 16 16 17 19 18 19 20 23 22 21 21 20 19 18 16 14 13 13 11 11 11 10 12 13 12 10 10 11 11 10 10 10 10 9 10 9 8 7 7 7 7 7 7 5 5 5 5 5 4 4 4 4 4 3 3 4 5 5 5 6 6 6 5 5 5 5 5 7 5 7 6
7 11 12 14 15 11 9 13 12 8 10 13 15 18 13 9 11 9 13 16 18 18 14 15 16 16 16 14 19 18 18 18 17 19 21 21 20 20 18 19 18 14 12 13 13 12 12 12 13 14 13 10 11 12 11 11 10 10 10 10 11 12 11 10 9 8 7 7 7 6 6 5 5 5 5 3 4 4 5 5 6 6 6 6 6 6 6 6 5 5 5 5 6 7 6 7 6
10 9 9 8 11 8 6 7 10 10 9 13 17 19 14 6 4 14 8 9 19 18 13 16 19 21 18 14 16 18 19 18 17 17 17 17 15 15 16 17 17 16 14 14 13 12 12 13 13 14 13 12 12 11 11 11 10 10 9 11 11 11 12 10 11 11 9 9 8 8 6 6 5 5 5 5 5 5 6 5 5 5 6 6 6 6 6 6 6 5 5 5 5 5 6 7 6
9 6 7 6 4 4 6 5 10 8 10 11 12 11 10 10 6 7 17 15 14 14 13 18 20 20 19 15 19 17 19 19 18 17 16 16 18 18 17 17 17 16 16 17 17 13 13 13 15 16 14 12 13 12 12 11 11 10 10 10 10 10 10 10 10 10 9 9 8 8 8 7 6 6 6 6 5 5 6 6 5 6 6 6 7 6 5 5 5 5 6 5 6 6 6 6 7
9 7 7 6 5 5 5 5 4 4 8 15 13 6 8 3 13 15 21 18 11 11 15 16 17 18 18 16 18 16 18 20 19 18 19 19 19 19 19 19 19 16 17 17 17 14 13 13 15 16 14 13 12 12 12 12 11 10 10 10 10 10 10 10 9 10 9 8 8 8 8 8 7 6 6 6 6 6 5 5 5 5 5 5 6 6 6 5 6 6 5 6 6 5 6 7 7
8 4 7 5 7 5 4 3 5 7 4 7 12 7 2 0 6 11 11 8 10 12 15 16 14 18 19 17 19 18 19 19 18 19 19 19 20 21 19 19 18 16 17 17 16 15 13 13 15 16 16 14 14 13 12 12 10 10 10 9 10 9 10 9 9 8 9 9 7 7 7 7 7 6 6 5 6 7 7 6 6 5 5 6 6 6 6 6 6 6 6 6 5 5 7 7 7
12 10 3 7 10 5 8 1 4 4 6 7 1 3 1 7 5 6 11 8 6 10 17 16 13 18 21 19 21 19 19 19 17 18 18 19 20 18 17 17 16 15 17 15 17 16 14 15 16 17 16 15 14 13 12 12 11 10 10 10 11 11 9 8 8 8 7 8 8 8 8 8 7 7 6 6 5 7 7 7 6 6 5 6 7 7 7 6 6 7 6 6 6 4 7 8 6
2 6 6 7 7 9 7 5 5 4 2 5 0 3 7 8 18 14 6 17 16 10 11 14 17 21 23 21 21 20 19 19 18 18 17 18 17 17 18 18 15 15 16 17 18 18 17 16 15 16 15 14 14 13 12 12 11 11 11 10 11 11 11 11 10 11 10 9 8 8 8 7 8 7 7 6 6 6 7 7 7 6 5 6 8 7 7 6 6 6 7 6 7 5 7 6 6
8 5 4 5 9 9 3 4 3 3 1 3 3 6 4 9 7 9 7 7 12 15 10 17 20 22 21 20 19 21 21 21 23 21 20 21 19 18 15 15 17 18 18 17 18 16 14 14 16 16 15 16 15 13 13 12 12 12 10 11 11 11 10 10 10 11 10 9 8 8 7 8 9 8 7 6 7 7 7 7 7 6 5 6 7 7 7 7 7 6 6 6 6 6 7 6 5
10 10 4 1 2 7 7 1 2 3 3 3 3 7 11 7 5 6 11 7 8 13 8 14 22 23 22 20 19 25 22 21 22 21 19 18 17 17 18 18 17 16 16 17 16 15 13 13 15 15 16 15 14 12 11 11 11 10 9 11 12 11 10 9 9 10 9 9 10 9 9 9 9 8 8 8 8 7 7 7 7 6 6 7 7 7 7 7 6 7 6 7 6 6 7 6 5
14 10 9 1 6 5 3 1 2 1 1 4 8 7 5 6 6 7 7 6 11 19 7 15 20 22 20 18 16 22 20 20 22 19 18 18 19 19 19 18 17 17 16 15 15 13 14 14 16 15 13 12 13 13 12 12 12 10 10 10 10 10 10 10 11 10 10 9 10 10 10 10 9 8 8 8 8 8 8 7 6 7 7 7 7 6 7 7 7 6 6 7 6 7 7 6 5
8 6 4 3 2 4 7 5 7 3 1 2 3 5 6 9 5 4 6 10 14 12 10 11 16 18 18 18 15 21 21 20 21 19 18 18 18 18 17 17 16 14 13 14 14 15 14 14 15 15 16 16 16 14 13 12 11 11 12 12 12 11 11 10 11 10 10 10 9 9 9 9 9 8 9 8 8 9 8 8 7 7 7 7 7 7 7 7 7 7 6 6 7 7 6 5 5
7 6 6 5 4 3 4 8 6 7 4 2 0 5 8 10 4 7 6 9 14 8 11 14 16 17 17 13 17 21 19 22 21 20 19 18 18 17 16 14 12 13 14 14 13 13 13 14 15 15 14 14 15 14 13 12 11 11 13 13 12 10 11 10 11 11 11 10 9 10 10 10 10 9 9 9 9 8 8 8 7 7 7 7 7 8 7 7 8 7 6 6 7 7 6 5 5
Wind_Direction
305 311 315 311 319 244 83 144 355 303 120 252 256 250 252 277 193 217 251 49 84 43 76 85 101 101 87 182 105 79 31 124 297 121 184 196 85 105 108 112 119 123 126 133 136 134 131 132 131 128 129 128 126 126 126 126 126 125 121 120 119 117 116 115 118 118 113 112 111 108 103 100 98 95 90 83 76 79 86 88 91 100 104 103 105 104 104 109 110 104 98 95 91 92 87 84 81
297 315 319 292 291 56 330 333 276 313 306 303 253 240 241 286 308 259 228 73 106 121 117 104 87 86 67 328 338 112 48 59 81 111 88 99 103 100 117 119 127 126 128 131 135 133 134 133 131 131 131 131 130 129 130 130 128 126 125 124 122 120 117 119 121 120 115 111 109 109 107 106 102 97 91 83 81 83 87 89 93 102 104 110 110 103 103 105 106 101 99 94 91 86 84 77 69
307 328 315 297 39 103 265 355 272 308 298 291 280 261 252 261 267 273 211 132 119 125 119 118 119 115 112 208 266 68 205 97 104 92 107 117 103 126 117 118 119 123 127 130 133 135 131 134 134 134 133 132 133 132 132 131 131 129 128 128 125 122 121 120 122 120 116 114 116 115 111 104 95 96 93 88 82 87 94 94 97 104 111 114 114 106 105 108 106 99 93 91 87 81 72 64 56
271 219 231 332 360 14 31 337 269 250 278 262 279 285 320 298 299 318 51 71 116 120 109 112 92 160 151 175 135 86 120 132 123 134 131 135 126 125 118 118 122 123 126 131 134 133 134 136 135 136 135 134 135 134 134 134 133 132 132 131 127 126 123 124 122 120 119 118 117 113 109 110 104 98 96 91 86 81 90 104 105 105 112 116 114 114 115 112 107 100 91 88 83 72 64 53 45
254 204 173 47 108 4 61 258 253 285 271 254 269 286 300 300 320 288 338 93 132 119 120 118 112 186 160 143 167 144 181 113 128 134 113 91 113 120 124 125 127 129 129 131 132 133 138 137 137 137 136 137 136 136 136 136 134 135 134 133 131 127 127 125 124 123 122 121 116 113 114 109 104 99 96 94 89 85 84 86 94 107 113 105 102 98 102 103 98 97 97 86 74 64 52 45 38
297 188 196 160 127 190 81 334 298 271 258 265 276 295 298 281 288 337 345 13 74 87 114 129 125 147 132 93 126 124 142 159 145 138 120 121 125 130 130 130 130 131 130 125 128 136 142 141 139 139 138 138 137 137 137 136 136 136 136 135 133 130 128 128 126 124 124 121 118 118 113 112 110 104 102 97 95 94 92 99 102 108 115 113 109 107 103 100 103 106 97 78 63 51 45 35 25
319 350 99 32 349 78 221 241 263 275 276 280 273 278 292 308 290 333 328 207 36 37 84 122 113 99 89 108 59 62 149 132 146 130 119 131 127 131 131 132 131 129 123 125 130 135 142 138 137 140 140 140 139 139 139 138 138 138 138 136 134 131 130 129 127 126 125 123 122 120 118 115 111 107 105 102 102 102 103 105 112 116 121 119 119 116 112 112 111 97 81 75 59 46 34 27 23
249 210 253 115 206 135 222 247 250 253 277 274 265 283 286 294 301 282 286 348 303 29 118 126 129 100 120 112 109 95 92 136 110 111 115 127 130 132 133 131 125 116 119 125 132 135 140 138 141 142 142 141 141 141 140 140 141 140 138 137 134 132 130 130 129 127 124 125 126 124 120 115 110 111 109 110 110 110 110 113 112 113 118 121 121 118 115 105 91 86 80 73 67 44 34 21 17
281 187 277 281 207 186 219 226 247 236 279 277 276 273 284 302 301 321 328 357 152 202 164 126 124 103 107 89 85 83 77 96 108 114 121 128 131 133 132 130 122 124 125 130 133 137 137 142 141 144 144 143 143 143 142 142 142 141 139 138 136 132 130 129 128 126 126 127 127 125 121 119 117 114 117 117 117 115 115 115 119 122 120 119 118 118 115 101 95 86 80 63 50 41 30 20 8
297 186 235 209 157 229 216 232 232 230 244 269 272 282 290 297 295 318 314 303 286 354 2 82 108 110 117 90 87 62 96 104 108 112 124 130 129 127 129 126 121 118 121 126 132 134 139 143 143 144 144 144 144 144 143 143 142 141 140 137 136 134 132 131 129 129 127 127 127 127 127 125 123 121 120 124 126 124 122 123 121 128 132 128 130 126 122 108 103 90 79 60 29 27 17 3 1
281 211 174 252 213 216 212 225 230 226 230 263 268 267 274 286 288 297 287 294 292 221 311 118 92 106 101 96 86 115 106 106 117 128 133 135 130 119 96 99 110 119 124 129 133 137 141 142 146 143 144 146 144 144 143 142 140 139 139 138 137 135 134 134 134 132 131 130 129 126 127 129 129 129 128 130 132 129 124 126 128 127 133 133 135 136 121 110 105 101 83 50 36 8 2 352 348
254 243 191 224 226 197 215 224 222 218 227 247 260 261 267 275 289 285 280 287 288 270 219 84 154 139 109 120 124 126 122 124 124 131 142 140 110 104 111 110 114 120 125 130 131 135 140 146 145 148 148 146 145 144 143 142 141 140 142 141 138 137 136 136 135 135 136 134 131 128 133 135 135 134 133 136 138 132 126 125 129 133 133 140 140 141 133 119 121 111 92 52 6 359 335 340 335
223 191 232 242 218 224 237 238 226 218 223 224 255 256 264 273 277 276 262 268 278 299 311 91 130 96 110 106 144 126 129 132 138 138 139 135 112 116 114 118 118 121 125 130 132 138 142 145 147 143 147 147 146 143 143 143 142 141 142 141 140 138 138 137 137 139 136 132 132 134 135 138 139 137 139 143 143 138 134 129 130 137 141 143 150 144 132 144 143 128 123 103 307 317 318 314 320
215 194 197 246 233 219 221 236 237 223 222 221 242 249 254 258 275 287 277 269 277 264 91 109 121 109 108 101 127 138 128 130 129 129 141 125 111 115 118 119 118 123 129 134 137 140 145 147 142 144 147 145 147 146 146 146 144 143 141 142 140 139 138 138 140 141 136 136 137 140 143 143 141 142 145 149 149 145 139 138 138 142 146 152 150 155 169 187 177 167 175 184 262 281 293 293 289
232 189 221 236 240 238 217 222 218 232 250 210 220 237 247 249 258 267 269 284 258 253 94 111 137 120 176 144 170 150 137 133 132 149 133 100 112 114 114 119 124 127 133 136 138 146 149 147 145 145 141 144 144 142 146 149 146 145 145 143 141 141 140 143 143 141 141 141 143 148 147 142 142 145 153 153 150 148 150 148 151 150 157 158 162 166 183 196 208 201 205 216 234 256 264 267 278
217 214 223 230 229 232 218 228 220 232 227 223 213 222 243 243 248 247 266 247 264 51 180 117 188 88 160 149 152 144 139 142 152 121 106 105 109 116 123 126 128 133 136 140 145 152 150 147 146 148 145 146 144 146 147 146 149 148 147 145 144 143 146 147 145 145 146 147 150 150 144 143 144 149 154 156 157 159 160 158 163 167 168 171 177 184 189 202 211 219 214 222 232 244 251 264 282
274 222 232 222 236 221 211 226 214 230 231 239 197 204 212 219 243 254 276 252 289 235 161 188 110 120 144 144 137 138 142 140 117 118 103 113 121 127 130 129 131 135 141 149 154 154 149 146 150 150 150 149 150 147 143 144 152 150 148 148 148 149 151 151 150 151 151 153 153 150 148 136 140 148 151 156 166 168 170 170 171 175 176 182 186 194 198 206 213 220 222 224 235 244 262 284 292
246 228 225 233 223 225 205 221 219 251 240 231 227 203 206 214 211 255 295 291 258 270 267 60 82 125 142 138 133 139 138 124 129 121 122 124 133 136 136 139 138 144 148 156 162 153 150 152 155 154 150 157 150 147 146 150 152 150 151 153 153 154 157 155 154 154 155 161 158 155 146 162 158 160 162 168 167 176 184 179 177 179 182 188 194 201 208 216 223 226 230 236 243 262 274 287 297
218 232 229 232 219 223 213 229 228 226 242 261 229 209 205 217 215 195 245 264 280 264 236 100 96 75 106 127 133 141 136 134 131 131 135 139 143 146 145 146 146 147 153 161 165 156 156 157 157 156 156 158 150 149 149 153 148 149 153 151 154 156 163 155 155 160 156 162 152 160 171 182 168 169 184 174 179 175 175 180 183 181 191 197 202 210 217 223 233 239 247 252 256 274 302 308 316
222 228 230 233 216 227 219 219 233 231 248 244 259 212 207 192 186 207 238 226 245 266 248 140 120 127 129 134 136 140 140 138 137 138 138 141 146 152 151 151 151 154 158 165 155 158 156 157 159 158 160 156 153 153 149 152 154 156 155 153 151 157 162 156 169 163 157 163 171 171 185 202 184 185 193 179 170 164 180 182 182 191 196 212 221 229 245 244 241 248 253 260 283 312 283 274 264
202 230 231 229 214 230 219 223 231 244 243 246 262 228 217 196 180 217 229 233 210 213 249 252 163 151 150 154 149 146 142 142 142 142 143 144 151 160 160 155 155 151 155 141 145 157 160 157 154 161 160 155 156 154 152 158 160 157 160 156 158 166 166 171 178 170 167 176 184 180 185 204 175 176 165 131 123 147 155 162 169 164 199 238 231 228 246 252 250 253 260 252 215 226 240 242 240
230 230 237 237 222 231 223 217 224 231 247 250 259 258 215 208 203 180 228 240 229 204 203 228 187 156 148 149 152 149 149 149 150 149 151 154 164 162 157 158 132 146 132 137 151 155 159 159 153 159 161 157 157 155 157 162 163 164 167 164 163 174 173 179 185 182 176 184 186 182 168 161 120 114 98 119 129 140 156 169 172 188 196 215 202 214 231 230 230 209 229 222 213 218 224 265 282
233 241 240 232 232 240 213 231 220 218 238 243 249 255 251 210 226 191 193 251 237 231 198 207 185 158 155 144 149 150 149 150 155 156 156 158 164 160 160 162 146 152 142 143 150 154 158 158 154 156 162 158 156 155 155 161 170 172 171 162 165 179 179 181 188 186 181 178 180 165 151 144 128 109 104 101 113 103 144 123 168 182 202 211 198 194 220 215 199 201 233 231 189 199 190 151 62
240 238 235 235 229 234 232 243 220 211 223 235 237 260 252 227 220 207 192 208 249 230 229 192 125 150 145 145 152 152 154 159 162 162 161 161 163 165 165 154 149 145 139 146 152 153 157 160 160 157 163 156 156 156 158 166 172 173 172 164 168 176 178 187 186 175 166 158 155 147 141 131 127 109 95 89 103 148 222 37 343 247 193 215 271 182 230 182 159 195 229 49 81 107 135 98 84
233 242 234 235 234 232 226 234 248 249 233 233 236 256 251 253 249 208 210 205 216 226 190 125 130 129 142 140 146 151 153 157 158 162 154 159 164 151 155 146 149 148 146 151 150 149 156 160 161 157 155 154 157 157 160 169 173 172 168 166 169 174 178 186 175 140 144 146 127 141 134 117 107 113 104 98 99 137 50 266 218 218 194 219 202 211 202 208 333 223 150 135 155 131 126 140 165
243 240 238 243 237 232 229 230 236 246 251 247 221 233 253 251 254 253 227 209 207 217 167 134 139 145 145 153 157 154 155 162 163 163 162 162 151 145 156 154 155 153 154 151 149 154 153 161 161 162 152 155 158 162 163 168 175 166 169 170 170 169 177 173 146 130 143 141 104 110 99 113 130 124 108 112 88 52 64 5 317 247 190 215 193 206 221 171 215 164 145 175 169 165 103 102 91
267 258 250 241 239 245 233 229 231 224 245 243 243 226 234 245 247 247 255 246 231 208 170 145 142 151 154 165 158 151 153 163 165 163 157 154 147 149 160 160 157 155 149 150 152 159 154 157 164 168 155 156 154 166 166 170 162 161 170 167 163 160 158 148 126 133 130 106 171 132 89 114 128 122 115 116 95 53 37 296 279 281 216 220 176 214 214 188 187 154 178 173 167 133 140 116 134
268 274 276 258 249 237 239 237 226 226 229 234 243 243 247 246 242 240 247 255 212 211 135 160 157 158 164 161 156 154 158 163 158 158 168 170 160 157 165 165 153 154 153 152 153 158 155 162 164 172 155 161 153 162 163 157 161 156 162 150 160 143 136 135 130 133 111 143 184 84 121 137 124 112 119 119 117 125 149 330 154 5 319 243 177 194 196 177 172 202 148 182 167 128 121 80 90
268 273 269 266 259 248 228 233 229 225 231 218 224 252 249 243 239 238 234 239 226 147 127 143 62 117 142 145 140 153 162 163 158 159 178 176 154 159 160 159 149 152 154 150 154 156 164 166 166 172 158 163 156 156 158 153 152 152 146 149 154 129 135 133 137 136 130 154 159 119 163 149 120 126 129 139 121 83 287 260 17 258 243 203 157 143 160 135 138 156 176 164 180 100 76 78 85
291 262 261 272 261 253 236 225 227 234 231 213 192 228 237 240 240 237 232 234 237 222 174 154 149 143 140 145 143 158 166 163 160 162 170 163 152 156 152 152 151 150 151 150 151 162 162 168 163 168 163 159 165 157 147 148 147 151 140 151 145 134 136 141 137 131 136 151 144 143 150 131 135 125 148 135 145 152 189 261 190 265 273 309 137 117 107 122 48 48 20 81 104 86 93 97 86
252 266 256 242 248 244 233 227 213 229 231 225 193 219 222 238 241 239 233 219 238 225 217 161 157 150 154 155 155 158 174 171 164 161 159 152 149 151 145 147 152 151 149 154 160 163 162 169 161 169 163 161 163 159 151 152 148 148 149 152 142 145 142 143 137 135 134 146 139 152 154 145 137 125 139 142 119 129 161 157 164 330 307 334 273 64 135 102 90 81 60 41 34 88 92 93 90
279 259 234 239 238 239 234 233 218 219 227 224 208 220 222 215 231 234 235 221 190 236 223 154 161 154 158 157 159 162 171 172 164 160 161 153 151 151 150 150 152 155 153 157 157 159 165 167 161 166 162 164 158 153 150 148 151 149 150 141 139 145 140 125 132 121 129 137 137 132 144 155 144 137 145 125 133 100 23 356 303 236 232 294 332 39 37 77 76 67 58 73 67 90 100 80 89
254 252 259 233 229 235 243 228 235 218 223 224 222 231 222 225 218 225 237 221 207 193 185 135 178 161 160 160 159 163 157 164 163 162 162 155 157 153 153 152 149 156 152 154 157 160 164 168 163 164 166 168 149 151 147 142 145 147 143 139 143 125 119 132 116 122 130 135 140 137 148 155 145 128 133 149 147 142 172 205 207 201 189 184 53 37 88 110 94 75 39 62 92 120 103 100 82
258 237 246 246 227 216 234 217 226 232 213 221 220 230 234 223 207 217 228 232 225 212 211 152 170 175 161 158 158 161 158 159 166 166 162 156 157 153 154 153 144 150 154 154 157 161 167 170 168 160 166 166 146 154 149 145 145 146 131 140 116 113 130 132 115 126 134 133 140 148 146 145 139 125 134 164 146 157 174 184 166 160 139 81 62 56 71 92 108 106 69 53 104 122 114 111 103
234 239 244 248 244 228 225 218 210 230 222 219 216 229 240 234 241 210 202 224 227 228 204 190 160 180 165 161 161 160 161 160 167 167 157 152 152 155 156 153 141 149 155 155 157 162 167 170 162 156 161 162 147 153 146 146 138 119 101 113 105 115 135 115 123 131 126 129 146 149 138 140 139 130 135 139 126 136 163 151 131 136 125 110 90 94 102 96 104 102 93 68 70 103 115 113 116
234 244 251 253 246 233 231 224 241 218 222 215 211 223 231 233 234 241 209 188 215 232 222 191 168 171 169 168 164 163 160 162 162 160 151 151 153 156 156 149 143 150 153 156 161 166 168 168 160 155 160 159 151 151 144 139 125 111 116 104 99 111 114 117 136 135 135 150 148 139 138 137 133 134 150 157 142 158 152 128 121 122 120 104 108 96 89 99 111 99 89 99 93 84 83 110 112
253 251 253 254 251 251 254 249 230 224 235 225 212 218 230 228 230 232 228 218 210 220 226 201 175 172 168 169 166 165 162 164 162 157 155 152 151 153 153 148 144 150 155 160 164 169 170 167 161 163 162 160 157 156 149 148 133 121 122 134 132 141 146 147 138 135 135 141 139 140 135 133 130 139 165 158 144 135 121 119 102 93 92 103 110 124 125 106 111 124 113 108 113 106 98 103 111
246 252 255 259 260 254 232 242 247 238 233 217 214 218 221 222 217 227 224 215 213 215 214 205 194 176 173 166 168 169 167 156 146 145 146 146 151 154 154 152 148 154 163 164 168 169 167 163 165 165 162 162 159 155 151 151 145 159 152 157 138 146 147 149 146 156 157 147 147 146 141 139 139 157 173 192 140 116 120 112 106 115 110 113 119 131 120 114 103 90 95 112 126 129 128 156 147
247 246 252 262 263 280 277 226 234 247 242 241 215 218 221 209 216 226 209 217 215 215 192 191 197 186 180 173 163 165 152 152 155 152 151 155 155 156 156 154 158 160 162 167 169 164 166 167 167 165 165 159 157 158 155 152 142 146 140 148 139 137 145 148 147 159 159 149 151 150 147 141 149 165 195 150 110 108 115 117 106 104 104 118 120 119 109 102 124 151 122 127 135 110 115 159 168
232 240 240 245 259 255 258 262 238 234 236 242 235 227 218 211 218 229 215 213 223 206 207 201 192 198 183 182 164 159 155 156 155 152 155 158 157 155 154 157 160 157 164 168 168 166 170 175 164 163 161 158 161 162 151 136 138 132 121 128 133 136 151 143 128 144 142 140 156 167 150 150 159 172 151 114 110 112 116 107 100 103 106 121 132 131 123 127 113 84 91 127 132 132 138 168 196
234 232 242 240 244 249 256 269 259 227 240 240 242 236 235 214 218 226 220 223 217 220 195 209 207 194 187 183 164 162 162 158 156 156 153 155 158 163 162 158 157 164 173 172 166 168 177 176 166 161 161 166 162 159 147 135 125 118 121 117 117 103 107 120 124 143 159 162 150 154 164 162 165 158 139 125 112 104 105 106 101 102 91 75 118 124 138 151 135 119 107 98 133 149 143 131 35
249 234 229 243 248 250 255 262 266 262 241 231 211 224 232 210 211 211 204 209 220 227 221 212 211 201 167 175 170 168 163 160 160 161 161 163 162 155 151 158 165 172 177 173 168 169 169 172 164 161 163 164 161 160 150 145 146 143 144 144 145 146 149 152 163 167 168 164 162 154 145 142 123 102 99 104 99 90 94 100 100 96 93 90 105 108 96 85 90 99 114 121 112 142 140 123 115
241 238 222 227 243 255 257 258 257 246 243 240 224 227 237 212 208 195 195 201 211 211 220 215 214 205 179 180 165 169 163 165 162 160 158 157 158 158 162 166 169 173 175 166 169 168 167 172 162 165 166 164 163 160 156 150 149 152 154 156 153 155 150 161 158 161 152 152 141 132 113 91 98 102 89 97 99 101 101 100 100 98 98 94 88 91 91 94 82 76 71 73 116 134 120 126 143
249 243 245 217 220 238 246 259 257 261 268 276 244 225 230 248 223 203 192 199 211 218 216 217 211 206 191 183 164 168 164 164 162 163 162 162 163 162 167 169 171 174 167 166 168 168 169 173 161 165 163 165 168 162 162 160 155 154 152 153 153 152 156 155 159 157 146 141 127 124 115 98 93 99 102 93 100 103 106 107 108 107 103 101 100 105 112 106 86 71 74 89 75 96 125 133 151
253 250 247 248 220 222 237 250 257 259 273 266 271 244 227 227 243 194 194 200 204 215 214 210 207 198 188 173 160 168 165 164 162 164 164 164 165 168 164 168 172 165 165 169 170 170 166 163 160 162 164 164 170 168 164 163 158 157 156 154 148 146 141 141 140 134 132 130 122 118 110 110 96 90 96 101 97 103 106 116 119 116 101 102 100 96 88 90 99 99 87 75 83 77 89 115 109
234 257 272 274 259 228 219 241 252 250 246 259 261 256 253 218 216 210 191 192 196 209 212 205 200 186 177 166 160 167 167 165 166 164 165 167 167 167 168 164 164 169 169 165 164 163 166 160 164 166 166 168 169 170 163 159 157 157 157 157 148 143 137 132 131 133 133 130 122 120 116 112 109 100 99 103 104 108 114 107 102 110 122 110 102 102 97 91 90 94 102 106 99 91 89 96 108
243 245 250 259 261 248 223 227 239 245 240 248 252 258 251 235 208 199 192 194 189 198 206 204 196 186 181 169 161 167 168 166 167 168 167 167 168 163 158 163 169 164 164 164 165 166 167 164 165 168 168 167 169 169 165 161 158 161 160 157 153 149 148 142 139 138 137 133 131 132 127 121 114 118 112 116 124 120 105 101 110 117 117 115 108 104 106 106 101 103 105 98 95 103 105 103 95
238 226 242 274 263 259 247 233 223 226 244 243 248 248 247 262 247 201 193 195 192 192 191 190 192 188 182 170 165 165 165 167 165 166 166 158 152 156 159 164 166 165 162 167 169 164 165 164 164 163 168 169 168 170 167 163 159 162 159 160 155 154 152 153 152 151 152 146 144 143 136 123 125 127 129 131 134 128 112 116 115 114 115 116 117 118 115 111 111 107 98 98 95 93 95 94 96
281 230 248 243 264 224 245 227 225 214 222 245 249 257 271 246 235 235 195 192 198 196 188 196 195 187 180 165 165 163 165 165 164 164 159 159 160 162 166 167 167 167 167 169 171 167 166 165 165 166 170 168 169 170 169 165 162 165 162 161 153 154 154 154 153 152 154 149 153 150 150 149 148 142 154 148 158 137 128 122 120 120 120 123 126 120 118 112 105 96 99 95 96 94 98 100 96
271 234 217 223 248 252 241 236 250 244 232 242 244 283 269 308 286 219 202 192 177 195 199 205 192 189 179 160 162 158 165 166 166 164 165 166 167 168 168 168 172 169 167 168 172 167 167 169 168 169 170 169 167 170 170 167 168 165 164 158 155 156 157 157 158 155 158 155 158 160 157 156 156 161 159 160 156 135 124 129 126 122 120 120 120 118 114 111 107 108 104 101 100 105 96 93 96
295 271 215 222 238 232 227 211 203 216 231 238 230 237 203 355 252 207 195 187 190 190 203 209 189 180 177 153 160 158 166 170 165 166 168 169 169 169 170 171 171 169 167 167 171 171 166 170 170 171 170 172 170 172 171 171 166 166 164 156 155 158 158 161 161 160 158 158 161 153 149 151 155 162 150 149 140 124 127 124 123 118 117 116 112 109 105 103 108 104 104 107 98 95 94 93 87
269 266 244 235 238 278 265 236 310 204 207 273 281 199 325 224 256 230 174 221 201 192 200 210 175 173 169 161 162 166 168 167 165 168 170 170 171 170 167 168 170 168 167 168 171 173 170 176 176 175 172 169 171 173 176 171 169 168 165 161 159 161 161 159 156 158 159 160 159 154 152 154 151 146 143 137 131 126 128 127 124 123 122 115 108 110 114 114 113 111 108 107 104 102 98 91 93
254 229 222 236 246 259 293 288 252 241 245 263 84 267 242 267 280 265 226 206 211 210 205 192 177 170 167 168 162 167 166 164 164 168 168 171 172 171 169 168 167 166 167 171 174 177 176 172 173 173 171 169 174 178 175 173 171 169 170 163 160 162 163 163 161 159 158 155 154 152 153 149 144 146 145 139 131 130 128 127 127 126 124 118 113 117 119 119 117 116 120 116 112 107 96 97 95
276 287 267 277 268 273 244 233 283 239 150 265 220 248 256 220 247 259 219 213 233 229 200 189 173 168 168 172 159 170 167 166 166 168 170 172 170 168 166 168 168 171 171 170 174 176 172 169 172 172 171 172 175 177 176 175 172 173 169 165 163 163 161 158 153 154 151 150 152 151 142 144 154 153 144 139 134 132 130 129 130 131 126 120 124 124 124 126 123 119 120 116 120 111 103 95 94
245 243 358 16 299 250 246 230 234 252 237 287 276 255 261 237 258 225 243 216 237 240 191 176 170 170 171 172 163 170 165 161 165 168 170 168 165 165 166 170 174 170 168 169 170 168 169 167 172 172 175 174 173 174 175 174 172 172 167 166 162 161 158 154 152 153 155 155 157 155 149 149 146 144 136 138 137 131 132 136 137 137 131 131 130 131 131 127 126 122 119 119 113 105 104 104 104
251 269 273 238 144 259 318 227 254 169 232 227 270 263 256 250 233 211 222 190 222 237 191 178 175 172 171 172 158 162 165 159 164 165 167 168 167 166 167 168 168 168 169 167 165 166 166 167 167 170 169 170 173 177 176 173 171 166 162 160 162 161 160 156 158 158 160 160 159 154 147 145 146 137 137 140 137 137 141 143 145 140 137 137 137 138 134 130 124 125 128 120 118 110 109 113 112
218 233 265 320 266 320 322 278 237 172 177 203 224 279 270 258 241 214 220 210 224 212 189 179 178 173 171 166 149 162 163 157 163 162 166 167 165 164 166 168 167 165 162 160 165 169 167 166 169 168 171 174 176 176 174 172 166 165 160 164 163 163 162 159 160 159 158 157 151 146 144 141 134 138 141 142 142 144 146 147 146 144 145 146 141 141 138 131 130 133 130 124 121 118 120 125 119
209 180 228 222 269 271 276 290 227 238 222 203 149 239 270 263 247 262 243 230 234 174 185 172 173 170 166 156 146 158 155 160 161 164 165 164 162 161 160 160 159 161 164 166 166 165 165 169 172 172 170 174 174 174 174 166 166 164 162 162 162 162 161 157 158 156 155 152 144 144 142 140 141 146 147 148 147 148 148 149 148 149 150 148 144 143 143 137 139 139 133 129 128 127 126 128 121